| time (UTC) | temp F | wind direction | speed knots | gust knots | rain 1hr in | rain 24hr in | rain mn in | humidity % | barometer mb |
| 20260507172053 | 57 | 220 | 12.2 | 20.9 | 0.00 | 0.00 | 0.00 | 53 | 1016.8 |
| 20260507171548 | 57 | 208 | 11.3 | 19.1 | 0.00 | 0.00 | 0.00 | 52 | 1016.8 |
| 20260507171046 | 57 | 249 | 12.2 | 21.7 | 0.00 | 0.00 | 0.00 | 52 | 1016.7 |
| 20260507170543 | 57 | 247 | 8.7 | 13.0 | 0.00 | 0.00 | 0.00 | 54 | 1016.8 |
| 20260507170040 | 56 | 247 | 12.2 | 13.9 | 0.00 | 0.00 | 0.00 | 54 | 1017.1 |
| 20260507165535 | 55 | 219 | 10.4 | 12.2 | 0.00 | 0.00 | 0.00 | 54 | 1017.1 |
| 20260507165032 | 54 | 198 | 7.8 | 12.2 | 0.00 | 0.00 | 0.00 | 56 | 1017.2 |
| 20260507164528 | 54 | 208 | 12.2 | 21.7 | 0.00 | 0.00 | 0.00 | 56 | 1017.3 |
| 20260507164026 | 54 | 233 | 6.1 | 10.4 | 0.00 | 0.00 | 0.00 | 57 | 1017.4 |
| 20260507163523 | 54 | 213 | 13.9 | 25.2 | 0.00 | 0.00 | 0.00 | 56 | 1017.6 |
| 20260507163021 | 54 | 229 | 9.6 | 14.8 | 0.00 | 0.00 | 0.00 | 57 | 1017.6 |
| 20260507162515 | 53 | 246 | 8.7 | 17.4 | 0.00 | 0.00 | 0.00 | 59 | 1017.7 |
| 20260507162012 | 53 | 165 | 7.0 | 11.3 | 0.00 | 0.00 | 0.00 | 58 | 1017.6 |
| 20260507161509 | 53 | 186 | 7.0 | 14.8 | 0.00 | 0.00 | 0.00 | 59 | 1017.6 |
| 20260507161006 | 53 | 194 | 11.3 | 19.1 | 0.00 | 0.00 | 0.00 | 58 | 1017.7 |
| 20260507160501 | 52 | 247 | 6.1 | 13.9 | 0.00 | 0.00 | 0.00 | 60 | 1017.7 |
| 20260507155957 | 51 | 213 | 9.6 | 15.6 | 0.00 | 0.00 | 0.00 | 61 | 1017.9 |
| 20260507155453 | 52 | 190 | 11.3 | 12.2 | 0.00 | 0.00 | 0.00 | 60 | 1017.9 |
| 20260507154950 | 51 | 209 | 1.7 | 9.6 | 0.00 | 0.00 | 0.00 | 61 | 1018.0 |
| 20260507154447 | 51 | 183 | 6.1 | 13.9 | 0.00 | 0.00 | 0.00 | 62 | 1018.1 |
| 20260507153944 | 50 | 179 | 4.3 | 11.3 | 0.00 | 0.00 | 0.00 | 62 | 1018.0 |
| 20260507153441 | 50 | 224 | 6.1 | 10.4 | 0.00 | 0.00 | 0.00 | 62 | 1018.1 |
| 20260507152937 | 51 | 207 | 9.6 | 14.8 | 0.00 | 0.00 | 0.00 | 62 | 1018.3 |
| 20260507152433 | 50 | 215 | 7.8 | 15.6 | 0.00 | 0.00 | 0.00 | 63 | 1018.1 |
| 20260507151929 | 50 | 160 | 7.8 | 11.3 | 0.00 | 0.00 | 0.00 | 64 | 1018.0 |
| 20260507151426 | 50 | 164 | 11.3 | 15.6 | 0.00 | 0.00 | 0.00 | 63 | 1018.1 |
| 20260507150923 | 48 | 190 | 10.4 | 12.2 | 0.00 | 0.00 | 0.00 | 66 | 1018.3 |
| 20260507150420 | 49 | 198 | 6.1 | 12.2 | 0.00 | 0.00 | 0.00 | 65 | 1018.3 |
| 20260507145916 | 48 | 145 | 7.0 | 10.4 | 0.00 | 0.00 | 0.00 | 65 | 1018.2 |
| 20260507145412 | 48 | 158 | 7.0 | 10.4 | 0.00 | 0.00 | 0.00 | 66 | 1018.3 |
| 20260507144909 | 48 | 156 | 8.7 | 10.4 | 0.00 | 0.00 | 0.00 | 67 | 1018.3 |
| 20260507144406 | 48 | 152 | 9.6 | 13.0 | 0.00 | 0.00 | 0.00 | 67 | 1018.4 |
| 20260507143903 | 47 | 198 | 5.2 | 10.4 | 0.00 | 0.00 | 0.00 | 67 | 1018.3 |
| 20260507143401 | 48 | 206 | 9.6 | 12.2 | 0.00 | 0.00 | 0.00 | 67 | 1018.3 |
| 20260507142857 | 48 | 178 | 6.1 | 7.0 | 0.00 | 0.00 | 0.00 | 68 | 1018.3 |
| 20260507142353 | 47 | 110 | 6.1 | 7.8 | 0.00 | 0.00 | 0.00 | 72 | 1018.8 |
| 20260507141850 | 46 | 194 | 3.5 | 4.3 | 0.00 | 0.00 | 0.00 | 76 | 1018.4 |
| 20260507141346 | 44 | 138 | 0.9 | 7.0 | 0.00 | 0.00 | 0.00 | 83 | 1018.4 |
| 20260507140843 | 44 | 215 | 5.2 | 5.2 | 0.00 | 0.00 | 0.00 | 89 | 1018.7 |
| 20260507140339 | 43 | 87 | 1.7 | 6.1 | 0.00 | 0.00 | 0.00 | 92 | 1018.3 |
| 20260507135838 | 42 | 352 | 2.6 | 3.5 | 0.00 | 0.00 | 0.00 | 94 | 1018.4 |
| 20260507135334 | 42 | 239 | 2.6 | 4.3 | 0.00 | 0.00 | 0.00 | 96 | 1018.5 |
| 20260507134832 | 42 | 347 | 4.3 | 6.1 | 0.00 | 0.00 | 0.00 | 96 | 1018.5 |
| 20260507134327 | 41 | 325 | 4.3 | 6.1 | 0.00 | 0.00 | 0.00 | 97 | 1018.7 |
| 20260507133824 | 41 | 326 | 5.2 | 7.0 | 0.00 | 0.00 | 0.00 | 97 | 1018.7 |
| 20260507133319 | 40 | 342 | 7.8 | 8.7 | 0.00 | 0.00 | 0.00 | 97 | 1018.4 |
| 20260507132818 | 40 | 339 | 4.3 | 6.1 | 0.00 | 0.00 | 0.00 | 97 | 1018.4 |
| 20260507132314 | 39 | 335 | 5.2 | 7.0 | 0.00 | 0.00 | 0.00 | 97 | 1018.7 |
| 20260507131812 | 39 | 339 | 6.1 | 7.8 | 0.00 | 0.00 | 0.00 | 97 | 1018.3 |
| 20260507131308 | 39 | 352 | 6.1 | 7.0 | 0.00 | 0.00 | 0.00 | 97 | 1018.5 |
| 20260507130804 | 38 | 359 | 6.1 | 7.8 | 0.00 | 0.00 | 0.00 | 96 | 1018.8 |
| 20260507130302 | 38 | 358 | 4.3 | 7.8 | 0.00 | 0.00 | 0.00 | 96 | 1018.7 |
| 20260507125801 | 38 | 340 | 6.1 | 8.7 | 0.00 | 0.00 | 0.00 | 96 | 1018.4 |
| 20260507125258 | 37 | 344 | 7.0 | 10.4 | 0.00 | 0.00 | 0.00 | 96 | 1018.2 |
| 20260507124755 | 37 | 335 | 8.7 | 10.4 | 0.00 | 0.00 | 0.00 | 96 | 1018.4 |
| 20260507124251 | 37 | 338 | 8.7 | 9.6 | 0.00 | 0.00 | 0.00 | 96 | 1018.5 |
| 20260507123750 | 37 | 335 | 7.0 | 7.8 | 0.00 | 0.00 | 0.00 | 95 | 1018.4 |
| 20260507123247 | 36 | 341 | 5.2 | 7.0 | 0.00 | 0.00 | 0.00 | 95 | 1018.3 |
| 20260507122742 | 36 | 353 | 5.2 | 6.1 | 0.00 | 0.00 | 0.00 | 95 | 1018.2 |
| 20260507122238 | 35 | 337 | 7.0 | 8.7 | 0.00 | 0.00 | 0.00 | 95 | 1018.3 |
| 20260507121734 | 35 | 352 | 6.1 | 7.8 | 0.00 | 0.00 | 0.00 | 94 | 1018.1 |
| 20260507121230 | 35 | 349 | 5.2 | 7.8 | 0.00 | 0.00 | 0.00 | 94 | 1018.1 |
| 20260507120726 | 35 | 350 | 6.1 | 8.7 | 0.00 | 0.00 | 0.00 | 94 | 1018.2 |
| 20260507120224 | 35 | 333 | 7.8 | 9.6 | 0.00 | 0.00 | 0.00 | 93 | 1018.0 |
| 20260507115720 | 35 | 349 | 7.8 | 10.4 | 0.00 | 0.00 | 0.00 | 92 | 1018.1 |
| 20260507115216 | 35 | 338 | 9.6 | 10.4 | 0.00 | 0.00 | 0.00 | 92 | 1018.1 |
| 20260507114711 | 36 | 337 | 8.7 | 9.6 | 0.00 | 0.00 | 0.00 | 92 | 1017.9 |
| 20260507114209 | 36 | 348 | 4.3 | 7.8 | 0.00 | 0.00 | 0.00 | 91 | 1017.9 |
| 20260507113706 | 35 | 347 | 5.2 | 6.1 | 0.00 | 0.00 | 0.00 | 91 | 1017.9 |
| 20260507113203 | 35 | 2 | 4.3 | 6.1 | 0.00 | 0.00 | 0.00 | 91 | 1018.1 |
| 20260507112701 | 35 | 356 | 3.5 | 5.2 | 0.00 | 0.00 | 0.00 | 91 | 1017.7 |
| 20260507112157 | 36 | 1 | 4.3 | 6.1 | 0.00 | 0.00 | 0.00 | 91 | 1017.9 |
| 20260507111655 | 36 | 351 | 4.3 | 4.3 | 0.00 | 0.00 | 0.00 | 91 | 1017.7 |
| 20260507111152 | 36 | 355 | 5.2 | 7.0 | 0.00 | 0.00 | 0.00 | 91 | 1018.0 |
| 20260507110647 | 36 | 351 | 4.3 | 5.2 | 0.00 | 0.00 | 0.00 | 91 | 1018.0 |
| 20260507110144 | 36 | 355 | 4.3 | 5.2 | 0.00 | 0.00 | 0.00 | 91 | 1017.7 |
| 20260507105641 | 36 | 349 | 4.3 | 5.2 | 0.00 | 0.00 | 0.00 | 91 | 1017.6 |
| 20260507105137 | 37 | 355 | 5.2 | 7.0 | 0.00 | 0.00 | 0.00 | 91 | 1017.7 |
| 20260507104634 | 37 | 344 | 5.2 | 7.0 | 0.00 | 0.00 | 0.00 | 90 | 1017.9 |
| 20260507104131 | 37 | 0 | 4.3 | 6.1 | 0.00 | 0.00 | 0.00 | 90 | 1017.9 |
| 20260507103627 | 37 | 358 | 4.3 | 6.1 | 0.00 | 0.00 | 0.00 | 90 | 1017.7 |
| 20260507103124 | 37 | 2 | 3.5 | 5.2 | 0.00 | 0.00 | 0.00 | 89 | 1018.0 |
| 20260507102621 | 37 | 7 | 4.3 | 7.0 | 0.00 | 0.00 | 0.00 | 89 | 1017.9 |
| 20260507102117 | 37 | 21 | 4.3 | 7.8 | 0.00 | 0.00 | 0.00 | 89 | 1017.9 |
| 20260507101613 | 38 | 12 | 6.1 | 7.0 | 0.00 | 0.00 | 0.00 | 89 | 1018.0 |
| 20260507101109 | 38 | 357 | 6.1 | 7.0 | 0.00 | 0.00 | 0.00 | 89 | 1018.0 |
| 20260507100606 | 38 | 358 | 4.3 | 6.1 | 0.00 | 0.00 | 0.00 | 88 | 1018.0 |
| 20260507100104 | 38 | 13 | 5.2 | 7.0 | 0.00 | 0.00 | 0.00 | 88 | 1017.9 |
| 20260507095602 | 38 | 0 | 6.1 | 7.0 | 0.00 | 0.00 | 0.00 | 88 | 1017.7 |
| 20260507095058 | 38 | 7 | 5.2 | 7.0 | 0.00 | 0.00 | 0.00 | 88 | 1017.7 |
| 20260507094554 | 38 | 4 | 6.1 | 7.8 | 0.00 | 0.00 | 0.00 | 87 | 1018.0 |
| 20260507094051 | 39 | 2 | 6.1 | 8.7 | 0.00 | 0.00 | 0.00 | 87 | 1017.9 |
| 20260507093549 | 39 | 17 | 6.1 | 7.8 | 0.00 | 0.00 | 0.00 | 87 | 1017.9 |
| 20260507093047 | 39 | 3 | 5.2 | 6.1 | 0.00 | 0.00 | 0.00 | 86 | 1017.6 |
| 20260507092543 | 39 | 14 | 5.2 | 7.0 | 0.00 | 0.00 | 0.00 | 86 | 1017.9 |
| 20260507092040 | 39 | 1 | 5.2 | 6.1 | 0.00 | 0.00 | 0.00 | 85 | 1017.9 |
| 20260507091537 | 39 | 3 | 5.2 | 7.0 | 0.00 | 0.00 | 0.00 | 85 | 1017.9 |
| 20260507091033 | 40 | 18 | 3.5 | 5.2 | 0.00 | 0.00 | 0.00 | 84 | 1017.7 |
| 20260507090529 | 40 | 8 | 5.2 | 7.0 | 0.00 | 0.00 | 0.00 | 84 | 1017.7 |
| 20260507090026 | 40 | 9 | 4.3 | 6.1 | 0.00 | 0.00 | 0.00 | 83 | 1017.6 |
| 20260507085523 | 40 | 0 | 2.6 | 4.3 | 0.00 | 0.00 | 0.00 | 82 | 1017.9 |
| 20260507085020 | 41 | 22 | 5.2 | 6.1 | 0.00 | 0.00 | 0.00 | 82 | 1017.9 |
| 20260507084516 | 41 | 15 | 4.3 | 7.0 | 0.00 | 0.00 | 0.00 | 81 | 1017.7 |
| 20260507084014 | 41 | 55 | 5.2 | 7.8 | 0.00 | 0.00 | 0.00 | 81 | 1017.7 |
| 20260507083510 | 41 | 20 | 4.3 | 7.8 | 0.00 | 0.00 | 0.00 | 80 | 1017.6 |
| 20260507083007 | 41 | 39 | 4.3 | 7.8 | 0.00 | 0.00 | 0.00 | 79 | 1017.6 |
| 20260507082503 | 42 | 46 | 3.5 | 7.8 | 0.00 | 0.00 | 0.00 | 78 | 1017.9 |
| 20260507081959 | 42 | 33 | 5.2 | 10.4 | 0.00 | 0.00 | 0.00 | 78 | 1018.0 |
| 20260507081455 | 42 | 13 | 10.4 | 10.4 | 0.00 | 0.00 | 0.00 | 78 | 1018.1 |
| 20260507080953 | 42 | 97 | 7.8 | 7.8 | 0.00 | 0.00 | 0.00 | 78 | 1017.4 |
| 20260507080448 | 42 | 88 | 8.7 | 13.0 | 0.00 | 0.00 | 0.00 | 78 | 1017.0 |
| 20260507075944 | 42 | 94 | 8.7 | 13.0 | 0.00 | 0.00 | 0.00 | 78 | 1017.3 |
| 20260507075440 | 42 | 103 | 9.6 | 13.9 | 0.00 | 0.00 | 0.00 | 78 | 1017.0 |
| 20260507074937 | 42 | 98 | 7.0 | 16.5 | 0.00 | 0.00 | 0.00 | 78 | 1016.8 |
| 20260507074434 | 42 | 95 | 11.3 | 14.8 | 0.00 | 0.00 | 0.00 | 79 | 1017.1 |
| 20260507073932 | 42 | 105 | 14.8 | 19.1 | 0.00 | 0.00 | 0.00 | 79 | 1016.8 |
| 20260507073428 | 42 | 110 | 16.5 | 19.1 | 0.00 | 0.00 | 0.00 | 80 | 1017.0 |
| 20260507072925 | 42 | 104 | 13.0 | 17.4 | 0.00 | 0.00 | 0.00 | 81 | 1017.1 |
| 20260507072422 | 42 | 101 | 13.0 | 13.9 | 0.00 | 0.00 | 0.00 | 81 | 1017.4 |
| 20260507071920 | 42 | 71 | 10.4 | 14.8 | 0.00 | 0.00 | 0.00 | 81 | 1017.6 |
| 20260507071417 | 42 | 86 | 14.8 | 16.5 | 0.00 | 0.00 | 0.00 | 81 | 1017.6 |
| 20260507070913 | 42 | 84 | 9.6 | 15.6 | 0.00 | 0.00 | 0.00 | 81 | 1018.1 |
| 20260507070410 | 43 | 55 | 7.8 | 13.9 | 0.00 | 0.00 | 0.00 | 81 | 1018.4 |
| 20260507065907 | 43 | 48 | 13.9 | 16.5 | 0.00 | 0.00 | 0.00 | 81 | 1018.1 |
| 20260507065404 | 43 | 64 | 9.6 | 13.0 | 0.00 | 0.00 | 0.00 | 80 | 1018.3 |
| 20260507064901 | 43 | 49 | 13.0 | 18.2 | 0.00 | 0.00 | 0.00 | 80 | 1018.7 |
| 20260507064359 | 43 | 47 | 10.4 | 17.4 | 0.00 | 0.00 | 0.00 | 79 | 1018.1 |
| 20260507063857 | 43 | 56 | 7.8 | 16.5 | 0.00 | 0.00 | 0.00 | 79 | 1018.5 |
| 20260507063354 | 43 | 52 | 11.3 | 18.2 | 0.00 | 0.00 | 0.00 | 78 | 1018.1 |
| 20260507062850 | 44 | 55 | 15.6 | 17.4 | 0.00 | 0.00 | 0.00 | 78 | 1018.3 |
| 20260507062347 | 44 | 30 | 11.3 | 18.2 | 0.00 | 0.00 | 0.00 | 77 | 1018.3 |
| 20260507061845 | 44 | 65 | 8.7 | 21.7 | 0.00 | 0.00 | 0.00 | 77 | 1018.2 |
| 20260507061343 | 44 | 58 | 16.5 | 22.6 | 0.00 | 0.00 | 0.00 | 77 | 1017.6 |
| 20260507060841 | 44 | 38 | 9.6 | 19.1 | 0.00 | 0.00 | 0.00 | 76 | 1018.2 |
| 20260507060337 | 44 | 24 | 7.8 | 15.6 | 0.00 | 0.00 | 0.00 | 75 | 1018.2 |
| 20260507055834 | 44 | 29 | 10.4 | 16.5 | 0.00 | 0.00 | 0.00 | 75 | 1018.2 |
| 20260507055329 | 44 | 23 | 7.0 | 18.2 | 0.00 | 0.00 | 0.00 | 75 | 1018.2 |
| 20260507054826 | 44 | 45 | 14.8 | 18.2 | 0.00 | 0.00 | 0.00 | 76 | 1018.3 |
| 20260507054322 | 44 | 59 | 7.0 | 21.7 | 0.00 | 0.00 | 0.00 | 76 | 1017.7 |
| 20260507053820 | 44 | 46 | 11.3 | 19.1 | 0.00 | 0.00 | 0.00 | 76 | 1017.5 |
| 20260507053317 | 44 | 23 | 8.7 | 21.7 | 0.00 | 0.00 | 0.00 | 75 | 1017.4 |
| 20260507052816 | 45 | 22 | 13.9 | 17.4 | 0.00 | 0.00 | 0.00 | 75 | 1017.9 |
| 20260507052312 | 45 | 42 | 9.6 | 21.7 | 0.00 | 0.00 | 0.00 | 75 | 1017.6 |
| 20260507051810 | 45 | 47 | 22.6 | 29.5 | 0.00 | 0.00 | 0.00 | 74 | 1017.4 |
| 20260507051308 | 46 | 49 | 14.8 | 26.9 | 0.00 | 0.00 | 0.00 | 72 | 1017.5 |
| 20260507050804 | 46 | 31 | 11.3 | 24.3 | 0.00 | 0.00 | 0.00 | 72 | 1017.6 |
| 20260507050300 | 46 | 27 | 9.6 | 25.2 | 0.00 | 0.00 | 0.00 | 72 | 1017.5 |
| 20260507045757 | 46 | 28 | 11.3 | 25.2 | 0.00 | 0.00 | 0.00 | 72 | 1017.3 |
| 20260507045254 | 46 | 31 | 13.0 | 26.1 | 0.00 | 0.00 | 0.00 | 71 | 1017.4 |
| 20260507044751 | 46 | 12 | 13.9 | 23.5 | 0.00 | 0.00 | 0.00 | 71 | 1017.5 |
| 20260507044247 | 46 | 37 | 17.4 | 24.3 | 0.00 | 0.00 | 0.00 | 69 | 1017.5 |
| 20260507043744 | 46 | 29 | 16.5 | 24.3 | 0.00 | 0.00 | 0.00 | 69 | 1017.4 |
| 20260507043240 | 46 | 44 | 13.9 | 26.1 | 0.00 | 0.00 | 0.00 | 69 | 1016.7 |
| 20260507042737 | 46 | 41 | 10.4 | 31.3 | 0.00 | 0.00 | 0.00 | 68 | 1017.2 |
| 20260507042232 | 46 | 32 | 14.8 | 27.8 | 0.00 | 0.00 | 0.00 | 69 | 1017.0 |
| 20260507041730 | 46 | 50 | 13.9 | 21.7 | 0.00 | 0.00 | 0.00 | 69 | 1016.4 |
| 20260507041226 | 46 | 39 | 20.0 | 33.0 | 0.00 | 0.00 | 0.00 | 69 | 1016.3 |
| 20260507040723 | 47 | 14 | 20.9 | 26.9 | 0.00 | 0.00 | 0.00 | 68 | 1016.0 |
| 20260507040219 | 47 | 53 | 29.5 | 29.5 | 0.00 | 0.00 | 0.00 | 68 | 1016.0 |
| 20260507035715 | 47 | 52 | 21.7 | 31.3 | 0.00 | 0.00 | 0.00 | 67 | 1016.0 |
| 20260507035211 | 48 | 53 | 19.1 | 34.8 | 0.00 | 0.00 | 0.00 | 67 | 1015.9 |
| 20260507034708 | 48 | 45 | 21.7 | 26.9 | 0.00 | 0.00 | 0.00 | 66 | 1015.8 |
| 20260507034206 | 48 | 38 | 19.1 | 29.5 | 0.00 | 0.00 | 0.00 | 66 | 1015.8 |
| 20260507033704 | 48 | 52 | 25.2 | 32.2 | 0.00 | 0.00 | 0.00 | 65 | 1015.4 |
| 20260507033201 | 48 | 46 | 25.2 | 31.3 | 0.00 | 0.00 | 0.00 | 65 | 1015.1 |
| 20260507032658 | 49 | 42 | 24.3 | 27.8 | 0.00 | 0.00 | 0.00 | 64 | 1015.4 |
| 20260507032154 | 49 | 42 | 20.0 | 27.8 | 0.00 | 0.00 | 0.00 | 63 | 1015.3 |
| 20260507031651 | 49 | 50 | 21.7 | 29.5 | 0.00 | 0.00 | 0.00 | 62 | 1015.1 |
| 20260507031147 | 50 | 27 | 14.8 | 30.4 | 0.00 | 0.00 | 0.00 | 62 | 1014.8 |
| 20260507030644 | 51 | 43 | 13.0 | 28.7 | 0.00 | 0.00 | 0.00 | 60 | 1015.1 |
| 20260507030142 | 51 | 37 | 13.0 | 26.9 | 0.00 | 0.00 | 0.00 | 59 | 1015.0 |
| 20260507025639 | 52 | 29 | 14.8 | 28.7 | 0.00 | 0.00 | 0.00 | 57 | 1014.9 |
| 20260507025136 | 53 | 57 | 29.5 | 37.4 | 0.00 | 0.00 | 0.00 | 53 | 1014.5 |
| 20260507024634 | 54 | 31 | 18.2 | 32.2 | 0.00 | 0.00 | 0.00 | 52 | 1014.6 |
| 20260507024131 | 55 | 53 | 16.5 | 33.9 | 0.00 | 0.00 | 0.00 | 51 | 1014.2 |
| 20260507023626 | 55 | 50 | 21.7 | 36.5 | 0.00 | 0.00 | 0.00 | 50 | 1014.2 |
| 20260507023124 | 56 | 49 | 24.3 | 37.4 | 0.00 | 0.00 | 0.00 | 50 | 1013.9 |
| 20260507022621 | 56 | 56 | 33.0 | 35.6 | 0.00 | 0.00 | 0.00 | 49 | 1013.7 |
| 20260507022116 | 56 | 23 | 22.6 | 31.3 | 0.00 | 0.00 | 0.00 | 49 | 1013.7 |
| 20260507021613 | 57 | 38 | 27.8 | 42.6 | 0.00 | 0.00 | 0.00 | 48 | 1013.0 |
| 20260507021109 | 57 | 53 | 37.4 | 39.1 | 0.00 | 0.00 | 0.00 | 47 | 1012.5 |
| 20260507020607 | 58 | 12 | 26.1 | 41.7 | 0.00 | 0.00 | 0.00 | 46 | 1012.4 |
| 20260507015602 | 59 | 52 | 23.5 | 46.1 | 0.00 | 0.00 | 0.00 | 44 | 1011.2 |
| 20260507015059 | 63 | 14 | 22.6 | 38.2 | 0.00 | 0.00 | 0.00 | 38 | 1011.1 |
| 20260507014555 | 68 | 333 | 14.8 | 20.0 | 0.00 | 0.00 | 0.00 | 26 | 1010.0 |
| 20260507014051 | 68 | 330 | 7.8 | 12.2 | 0.00 | 0.00 | 0.00 | 25 | 1009.9 |
| 20260507013548 | 68 | 317 | 7.8 | 13.9 | 0.00 | 0.00 | 0.00 | 25 | 1009.8 |
| 20260507013045 | 69 | 278 | 17.4 | 18.2 | 0.00 | 0.00 | 0.00 | 23 | 1009.5 |
| 20260507012542 | 70 | 284 | 9.6 | 9.6 | 0.00 | 0.00 | 0.00 | 20 | 1009.5 |
| 20260507012038 | 70 | 275 | 9.6 | 12.2 | 0.00 | 0.00 | 0.00 | 20 | 1009.4 |
| 20260507011535 | 71 | 268 | 8.7 | 14.8 | 0.00 | 0.00 | 0.00 | 19 | 1009.2 |
| 20260507011026 | 71 | 271 | 13.0 | 14.8 | 0.00 | 0.00 | 0.00 | 19 | 1009.2 |
| 20260507010520 | 71 | 254 | 11.3 | 19.1 | 0.00 | 0.00 | 0.00 | 19 | 1008.9 |
| 20260507010017 | 71 | 274 | 12.2 | 13.9 | 0.00 | 0.00 | 0.00 | 20 | 1009.1 |
| 20260507005515 | 71 | 276 | 15.6 | 18.2 | 0.00 | 0.00 | 0.00 | 19 | 1008.7 |
| 20260507005011 | 72 | 268 | 13.0 | 19.1 | 0.00 | 0.00 | 0.00 | 19 | 1008.9 |
| 20260507004508 | 72 | 248 | 13.0 | 20.9 | 0.00 | 0.00 | 0.00 | 16 | 1008.4 |
| 20260507004006 | 72 | 267 | 15.6 | 19.1 | 0.00 | 0.00 | 0.00 | 16 | 1008.7 |
| 20260507003500 | 72 | 251 | 17.4 | 19.1 | 0.00 | 0.00 | 0.00 | 16 | 1008.4 |
| 20260507002955 | 71 | 268 | 13.9 | 21.7 | 0.00 | 0.00 | 0.00 | 17 | 1008.7 |
| 20260507002453 | 72 | 254 | 20.0 | 26.9 | 0.00 | 0.00 | 0.00 | 16 | 1008.3 |
| 20260507001949 | 73 | 259 | 18.2 | 23.5 | 0.00 | 0.00 | 0.00 | 15 | 1008.4 |
| 20260507001446 | 73 | 243 | 20.9 | 26.9 | 0.00 | 0.00 | 0.00 | 15 | 1008.7 |
| 20260507000944 | 73 | 273 | 20.0 | 23.5 | 0.00 | 0.00 | 0.00 | 16 | 1008.6 |
| 20260507000439 | 74 | 246 | 16.5 | 20.9 | 0.00 | 0.00 | 0.00 | 15 | 1008.3 |
| 20260506235935 | 73 | 243 | 19.1 | 21.7 | 0.00 | 0.00 | 0.00 | 16 | 1008.3 |
| 20260506235432 | 73 | 249 | 24.3 | 26.9 | 0.00 | 0.00 | 0.00 | 15 | 1008.3 |
| 20260506234927 | 74 | 264 | 20.9 | 32.2 | 0.00 | 0.00 | 0.00 | 15 | 1008.2 |
| 20260506234426 | 73 | 264 | 20.9 | 26.1 | 0.00 | 0.00 | 0.00 | 15 | 1008.2 |
| 20260506233923 | 73 | 260 | 20.9 | 27.8 | 0.00 | 0.00 | 0.00 | 14 | 1008.2 |
| 20260506233419 | 73 | 236 | 20.0 | 22.6 | 0.00 | 0.00 | 0.00 | 14 | 1008.3 |
| 20260506232916 | 74 | 246 | 16.5 | 20.9 | 0.00 | 0.00 | 0.00 | 14 | 1008.4 |
| 20260506232412 | 74 | 228 | 24.3 | 25.2 | 0.00 | 0.00 | 0.00 | 14 | 1008.2 |
| 20260506231908 | 73 | 256 | 18.2 | 25.2 | 0.00 | 0.00 | 0.00 | 15 | 1008.0 |
| 20260506231406 | 73 | 249 | 18.2 | 24.3 | 0.00 | 0.00 | 0.00 | 15 | 1008.4 |
| 20260506230903 | 73 | 237 | 19.1 | 20.9 | 0.00 | 0.00 | 0.00 | 14 | 1008.3 |
| 20260506230359 | 74 | 242 | 9.6 | 19.1 | 0.00 | 0.00 | 0.00 | 14 | 1008.2 |
| 20260506225856 | 74 | 237 | 22.6 | 26.9 | 0.00 | 0.00 | 0.00 | 14 | 1008.3 |
| 20260506225353 | 73 | 233 | 24.3 | 28.7 | 0.00 | 0.00 | 0.00 | 15 | 1008.1 |
| 20260506224850 | 73 | 238 | 16.5 | 20.9 | 0.00 | 0.00 | 0.00 | 15 | 1008.2 |
| 20260506224348 | 73 | 255 | 13.0 | 20.9 | 0.00 | 0.00 | 0.00 | 16 | 1008.1 |
| 20260506223844 | 73 | 266 | 15.6 | 25.2 | 0.00 | 0.00 | 0.00 | 16 | 1008.2 |
| 20260506223339 | 73 | 268 | 13.0 | 14.8 | 0.00 | 0.00 | 0.00 | 16 | 1008.2 |
| 20260506222836 | 73 | 283 | 13.0 | 16.5 | 0.00 | 0.00 | 0.00 | 16 | 1008.0 |
| 20260506222332 | 73 | 231 | 15.6 | 20.0 | 0.00 | 0.00 | 0.00 | 16 | 1008.4 |
| 20260506221830 | 73 | 224 | 8.7 | 13.0 | 0.00 | 0.00 | 0.00 | 16 | 1008.3 |
| 20260506221327 | 72 | 227 | 12.2 | 14.8 | 0.00 | 0.00 | 0.00 | 16 | 1008.3 |
| 20260506220825 | 74 | 255 | 20.9 | 21.7 | 0.00 | 0.00 | 0.00 | 16 | 1008.3 |
| 20260506220320 | 73 | 275 | 11.3 | 22.6 | 0.00 | 0.00 | 0.00 | 16 | 1008.4 |
| 20260506215817 | 73 | 234 | 10.4 | 12.2 | 0.00 | 0.00 | 0.00 | 16 | 1008.2 |
| 20260506215313 | 73 | 274 | 15.6 | 20.9 | 0.00 | 0.00 | 0.00 | 17 | 1008.4 |
| 20260506214809 | 73 | 246 | 15.6 | 21.7 | 0.00 | 0.00 | 0.00 | 17 | 1008.7 |
| 20260506214306 | 72 | 248 | 21.7 | 22.6 | 0.00 | 0.00 | 0.00 | 18 | 1008.6 |
| 20260506213804 | 72 | 255 | 19.1 | 26.9 | 0.00 | 0.00 | 0.00 | 18 | 1008.6 |
| 20260506213300 | 73 | 231 | 17.4 | 26.1 | 0.00 | 0.00 | 0.00 | 18 | 1008.7 |
| 20260506212758 | 70 | 255 | 11.3 | 15.6 | 0.00 | 0.00 | 0.00 | 20 | 1008.8 |
| 20260506212253 | 70 | 269 | 17.4 | 23.5 | 0.00 | 0.00 | 0.00 | 20 | 1008.9 |
| 20260506211748 | 71 | 241 | 10.4 | 13.9 | 0.00 | 0.00 | 0.00 | 22 | 1009.0 |
| 20260506211245 | 69 | 212 | 13.0 | 20.9 | 0.00 | 0.00 | 0.00 | 22 | 1008.8 |
| 20260506210743 | 70 | 208 | 18.2 | 20.0 | 0.00 | 0.00 | 0.00 | 22 | 1009.0 |
| 20260506210239 | 69 | 219 | 13.0 | 14.8 | 0.00 | 0.00 | 0.00 | 23 | 1008.9 |
| 20260506205736 | 69 | 225 | 13.0 | 14.8 | 0.00 | 0.00 | 0.00 | 24 | 1009.1 |
| 20260506205232 | 69 | 256 | 15.6 | 26.1 | 0.00 | 0.00 | 0.00 | 23 | 1009.4 |
| 20260506204729 | 71 | 229 | 17.4 | 23.5 | 0.00 | 0.00 | 0.00 | 22 | 1009.1 |
| 20260506204226 | 70 | 253 | 20.0 | 26.1 | 0.00 | 0.00 | 0.00 | 23 | 1009.4 |
| 20260506203724 | 70 | 234 | 23.5 | 24.3 | 0.00 | 0.00 | 0.00 | 23 | 1009.4 |
| 20260506203221 | 69 | 229 | 18.2 | 22.6 | 0.00 | 0.00 | 0.00 | 23 | 1009.4 |
| 20260506202719 | 72 | 229 | 17.4 | 25.2 | 0.00 | 0.00 | 0.00 | 22 | 1009.5 |
| 20260506202215 | 69 | 256 | 15.6 | 23.5 | 0.00 | 0.00 | 0.00 | 24 | 1009.2 |
| 20260506201712 | 69 | 250 | 10.4 | 14.8 | 0.00 | 0.00 | 0.00 | 24 | 1009.5 |
| 20260506201209 | 68 | 253 | 12.2 | 27.8 | 0.00 | 0.00 | 0.00 | 25 | 1009.5 |
| 20260506200705 | 69 | 229 | 17.4 | 29.5 | 0.00 | 0.00 | 0.00 | 24 | 1009.2 |
| 20260506200202 | 68 | 258 | 10.4 | 13.0 | 0.00 | 0.00 | 0.00 | 26 | 1009.5 |
| 20260506195659 | 67 | 239 | 9.6 | 13.0 | 0.00 | 0.00 | 0.00 | 26 | 1009.9 |
| 20260506195155 | 70 | 282 | 19.1 | 20.9 | 0.00 | 0.00 | 0.00 | 24 | 1009.9 |
| 20260506194653 | 69 | 202 | 10.4 | 19.1 | 0.00 | 0.00 | 0.00 | 24 | 1009.9 |
| 20260506194149 | 68 | 241 | 22.6 | 30.4 | 0.00 | 0.00 | 0.00 | 25 | 1009.8 |
| 20260506193647 | 69 | 235 | 20.9 | 32.2 | 0.00 | 0.00 | 0.00 | 24 | 1009.8 |
| 20260506193144 | 69 | 258 | 21.7 | 26.9 | 0.00 | 0.00 | 0.00 | 23 | 1009.9 |
| 20260506192640 | 68 | 254 | 11.3 | 19.1 | 0.00 | 0.00 | 0.00 | 25 | 1010.0 |
| 20260506192136 | 69 | 224 | 20.0 | 23.5 | 0.00 | 0.00 | 0.00 | 23 | 1009.8 |
| 20260506191633 | 67 | 224 | 8.7 | 20.9 | 0.00 | 0.00 | 0.00 | 27 | 1010.0 |
| 20260506191129 | 67 | 215 | 17.4 | 24.3 | 0.00 | 0.00 | 0.00 | 27 | 1010.1 |
| 20260506190627 | 68 | 236 | 10.4 | 26.9 | 0.00 | 0.00 | 0.00 | 25 | 1010.4 |
| 20260506190124 | 69 | 229 | 18.2 | 26.1 | 0.00 | 0.00 | 0.00 | 24 | 1010.4 |
| 20260506185621 | 67 | 277 | 13.0 | 22.6 | 0.00 | 0.00 | 0.00 | 30 | 1010.4 |
| 20260506185117 | 67 | 253 | 18.2 | 24.3 | 0.00 | 0.00 | 0.00 | 29 | 1010.5 |
| 20260506184614 | 65 | 251 | 17.4 | 17.4 | 0.00 | 0.00 | 0.00 | 33 | 1010.7 |
| 20260506184112 | 64 | 248 | 11.3 | 18.2 | 0.00 | 0.00 | 0.00 | 35 | 1010.7 |
| 20260506183608 | 65 | 251 | 17.4 | 26.1 | 0.00 | 0.00 | 0.00 | 34 | 1011.1 |
| 20260506183104 | 68 | 242 | 31.3 | 36.5 | 0.00 | 0.00 | 0.00 | 31 | 1010.9 |
| 20260506182602 | 66 | 242 | 29.5 | 33.0 | 0.00 | 0.00 | 0.00 | 30 | 1010.7 |
| 20260506182059 | 67 | 257 | 15.6 | 20.9 | 0.00 | 0.00 | 0.00 | 32 | 1011.3 |
| 20260506181557 | 66 | 237 | 20.0 | 22.6 | 0.00 | 0.00 | 0.00 | 31 | 1011.2 |
| 20260506181053 | 66 | 256 | 18.2 | 28.7 | 0.00 | 0.00 | 0.00 | 32 | 1011.2 |
| 20260506180550 | 65 | 235 | 13.0 | 24.3 | 0.00 | 0.00 | 0.00 | 33 | 1011.3 |
| 20260506180047 | 65 | 244 | 22.6 | 22.6 | 0.00 | 0.00 | 0.00 | 32 | 1011.4 |
| 20260506175543 | 64 | 246 | 12.2 | 20.0 | 0.00 | 0.00 | 0.00 | 34 | 1011.3 |
| 20260506175039 | 64 | 247 | 15.6 | 30.4 | 0.00 | 0.00 | 0.00 | 35 | 1011.4 |
| 20260506174538 | 64 | 240 | 18.2 | 26.1 | 0.00 | 0.00 | 0.00 | 34 | 1011.6 |
| 20260506174033 | 64 | 244 | 11.3 | 15.6 | 0.00 | 0.00 | 0.00 | 35 | 1011.5 |
| 20260506173532 | 62 | 256 | 13.0 | 21.7 | 0.00 | 0.00 | 0.00 | 36 | 1011.7 |
| 20260506173028 | 63 | 281 | 12.2 | 22.6 | 0.00 | 0.00 | 0.00 | 35 | 1011.7 |
| 20260506172526 | 63 | 257 | 12.2 | 16.5 | 0.00 | 0.00 | 0.00 | 35 | 1011.8 |